owner,sensor,date,latitude,longitude,vertical_datum,wind_speed,wind_to_direction,wind_speed_of_gust,qcFlag 
WAVCIS,ioos:station:WAVCIS:CSI09:1,2017-04-01T00:00:00Z,29.1015,-89.9782,0.0,3.51,125.0,,'11111222,11111222,99999999' 
WAVCIS,ioos:station:WAVCIS:CSI09:1,2017-04-01T01:00:00Z,29.1015,-89.9782,0.0,3.571,126.0,,'11111222,11111222,99999999' 
WAVCIS,ioos:station:WAVCIS:CSI09:1,2017-04-01T02:00:00Z,29.1015,-89.9782,0.0,4.019,136.0,,'11111222,11111222,99999999' 
WAVCIS,ioos:station:WAVCIS:CSI09:1,2017-04-01T03:00:00Z,29.1015,-89.9782,0.0,4.135,149.0,,'11111222,11111222,99999999' 
WAVCIS,ioos:station:WAVCIS:CSI09:1,2017-04-01T04:00:00Z,29.1015,-89.9782,0.0,5.037,152.0,,'11111222,11111222,99999999' 
WAVCIS,ioos:station:WAVCIS:CSI09:1,2017-04-01T05:00:00Z,29.1015,-89.9782,0.0,5.241,151.0,,'11111222,11111222,99999999' 
WAVCIS,ioos:station:WAVCIS:CSI09:1,2017-04-01T06:00:00Z,29.1015,-89.9782,0.0,4.666,152.0,,'11111222,11111222,99999999' 
WAVCIS,ioos:station:WAVCIS:CSI09:1,2017-04-01T07:00:00Z,29.1015,-89.9782,0.0,4.323,149.0,,'11111222,11111222,99999999' 
WAVCIS,ioos:station:WAVCIS:CSI09:1,2017-04-01T08:00:00Z,29.1015,-89.9782,0.0,4.415,144.0,,'11111222,11111222,99999999' 
WAVCIS,ioos:station:WAVCIS:CSI09:1,2017-04-01T09:00:00Z,29.1015,-89.9782,0.0,3.182,125.0,,'11111222,11111222,99999999' 
WAVCIS,ioos:station:WAVCIS:CSI09:1,2017-04-01T10:00:00Z,29.1015,-89.9782,0.0,3.685,116.0,,'11111222,11111222,99999999' 
WAVCIS,ioos:station:WAVCIS:CSI09:1,2017-04-01T11:00:00Z,29.1015,-89.9782,0.0,3.617,103.0,,'11111222,11111222,99999999' 
WAVCIS,ioos:station:WAVCIS:CSI09:1,2017-04-01T12:00:00Z,29.1015,-89.9782,0.0,4.336,105.0,,'11111222,11111222,99999999' 
WAVCIS,ioos:station:WAVCIS:CSI09:1,2017-04-01T13:00:00Z,29.1015,-89.9782,0.0,4.28,91.0,,'11111222,11111222,99999999' 
WAVCIS,ioos:station:WAVCIS:CSI09:1,2017-04-01T14:00:00Z,29.1015,-89.9782,0.0,5.85,84.0,,'11111222,11111222,99999999' 
WAVCIS,ioos:station:WAVCIS:CSI09:1,2017-04-01T15:00:00Z,29.1015,-89.9782,0.0,7.04,83.0,,'11111222,11111222,99999999' 
WAVCIS,ioos:station:WAVCIS:CSI09:1,2017-04-01T16:00:00Z,29.1015,-89.9782,0.0,8.12,84.0,,'11111222,11111222,99999999' 
WAVCIS,ioos:station:WAVCIS:CSI09:1,2017-04-01T17:00:00Z,29.1015,-89.9782,0.0,7.34,90.0,,'11111222,11111222,99999999' 
WAVCIS,ioos:station:WAVCIS:CSI09:1,2017-04-01T18:00:00Z,29.1015,-89.9782,0.0,7.5,89.0,,'11111222,11111222,99999999' 
WAVCIS,ioos:station:WAVCIS:CSI09:1,2017-04-01T19:00:00Z,29.1015,-89.9782,0.0,7.64,86.0,,'11111222,11111222,99999999' 
WAVCIS,ioos:station:WAVCIS:CSI09:1,2017-04-01T20:00:00Z,29.1015,-89.9782,0.0,7.93,85.0,,'11111222,11111222,99999999' 
WAVCIS,ioos:station:WAVCIS:CSI09:1,2017-04-01T21:00:00Z,29.1015,-89.9782,0.0,8.5,86.0,,'11111222,11111222,99999999' 
WAVCIS,ioos:station:WAVCIS:CSI09:1,2017-04-01T22:00:00Z,29.1015,-89.9782,0.0,9.37,86.0,,'11111222,11111222,99999999' 
WAVCIS,ioos:station:WAVCIS:CSI09:1,2017-04-01T23:00:00Z,29.1015,-89.9782,0.0,7.48,105.0,,'11111222,11111222,99999999' 
WAVCIS,ioos:station:WAVCIS:CSI09:1,2017-04-02T00:00:00Z,29.1015,-89.9782,0.0,8.34,111.0,,'11111222,11111222,99999999' 
WAVCIS,ioos:station:WAVCIS:CSI09:1,2017-04-02T01:00:00Z,29.1015,-89.9782,0.0,7.69,113.0,,'11111222,11111222,99999999' 
WAVCIS,ioos:station:WAVCIS:CSI09:1,2017-04-02T02:00:00Z,29.1015,-89.9782,0.0,7.32,107.0,,'11111222,11111222,99999999' 
WAVCIS,ioos:station:WAVCIS:CSI09:1,2017-04-02T03:00:00Z,29.1015,-89.9782,0.0,7.84,116.0,,'11111222,11111222,99999999' 
WAVCIS,ioos:station:WAVCIS:CSI09:1,2017-04-02T04:00:00Z,29.1015,-89.9782,0.0,7.85,116.0,,'11111222,11111222,99999999' 
WAVCIS,ioos:station:WAVCIS:CSI09:1,2017-04-02T05:00:00Z,29.1015,-89.9782,0.0,8.65,123.0,,'11111222,11111222,99999999' 
WAVCIS,ioos:station:WAVCIS:CSI09:1,2017-04-02T06:00:00Z,29.1015,-89.9782,0.0,8.56,113.0,,'11111222,11111222,99999999' 
WAVCIS,ioos:station:WAVCIS:CSI09:1,2017-04-02T07:00:00Z,29.1015,-89.9782,0.0,8.18,116.0,,'11111222,11111222,99999999' 
WAVCIS,ioos:station:WAVCIS:CSI09:1,2017-04-02T08:00:00Z,29.1015,-89.9782,0.0,8.23,122.0,,'11111222,11111222,99999999' 
WAVCIS,ioos:station:WAVCIS:CSI09:1,2017-04-02T09:00:00Z,29.1015,-89.9782,0.0,8.58,117.0,,'11111222,11111222,99999999' 
WAVCIS,ioos:station:WAVCIS:CSI09:1,2017-04-02T10:00:00Z,29.1015,-89.9782,0.0,7.53,131.0,,'11111222,11111222,99999999' 
WAVCIS,ioos:station:WAVCIS:CSI09:1,2017-04-02T11:00:00Z,29.1015,-89.9782,0.0,9.52,140.0,,'11111222,11111222,99999999' 
WAVCIS,ioos:station:WAVCIS:CSI09:1,2017-04-02T12:00:00Z,29.1015,-89.9782,0.0,8.77,131.0,,'11111222,11111222,99999999' 
WAVCIS,ioos:station:WAVCIS:CSI09:1,2017-04-02T13:00:00Z,29.1015,-89.9782,0.0,8.75,123.0,,'11111222,11111222,99999999' 
WAVCIS,ioos:station:WAVCIS:CSI09:1,2017-04-02T14:00:00Z,29.1015,-89.9782,0.0,8.27,115.0,,'11111222,11111222,99999999' 
WAVCIS,ioos:station:WAVCIS:CSI09:1,2017-04-02T15:00:00Z,29.1015,-89.9782,0.0,10.14,124.0,,'11111222,11111222,99999999' 
WAVCIS,ioos:station:WAVCIS:CSI09:1,2017-04-02T16:00:00Z,29.1015,-89.9782,0.0,10.53,121.0,,'11111222,11111222,99999999' 
WAVCIS,ioos:station:WAVCIS:CSI09:1,2017-04-02T17:00:00Z,29.1015,-89.9782,0.0,9.75,122.0,,'11111222,11111222,99999999' 
WAVCIS,ioos:station:WAVCIS:CSI09:1,2017-04-02T18:00:00Z,29.1015,-89.9782,0.0,9.31,119.0,,'11111222,11111222,99999999' 
WAVCIS,ioos:station:WAVCIS:CSI09:1,2017-04-02T19:00:00Z,29.1015,-89.9782,0.0,9.28,130.0,,'11111222,11111222,99999999' 
WAVCIS,ioos:station:WAVCIS:CSI09:1,2017-04-02T20:00:00Z,29.1015,-89.9782,0.0,10.41,131.0,,'11111222,11111222,99999999' 
WAVCIS,ioos:station:WAVCIS:CSI09:1,2017-04-02T21:00:00Z,29.1015,-89.9782,0.0,11.13,139.0,,'11111222,11111222,99999999' 
WAVCIS,ioos:station:WAVCIS:CSI09:1,2017-04-02T22:00:00Z,29.1015,-89.9782,0.0,10.86,141.0,,'11111222,11111222,99999999' 
WAVCIS,ioos:station:WAVCIS:CSI09:1,2017-04-02T23:00:00Z,29.1015,-89.9782,0.0,10.72,134.0,,'11111222,11111222,99999999' 
WAVCIS,ioos:station:WAVCIS:CSI09:1,2017-04-03T00:00:00Z,29.1015,-89.9782,0.0,9.25,135.0,,'11111222,11111222,99999999' 
WAVCIS,ioos:station:WAVCIS:CSI09:1,2017-04-03T01:00:00Z,29.1015,-89.9782,0.0,10.71,137.0,,'11111222,11111222,99999999' 
WAVCIS,ioos:station:WAVCIS:CSI09:1,2017-04-03T02:00:00Z,29.1015,-89.9782,0.0,11.26,144.0,,'11111222,11111222,99999999' 
WAVCIS,ioos:station:WAVCIS:CSI09:1,2017-04-03T03:00:00Z,29.1015,-89.9782,0.0,11.47,146.0,,'11111222,11111222,99999999' 
WAVCIS,ioos:station:WAVCIS:CSI09:1,2017-04-03T04:00:00Z,29.1015,-89.9782,0.0,12.1,152.0,,'11111222,11111222,99999999' 
WAVCIS,ioos:station:WAVCIS:CSI09:1,2017-04-03T05:00:00Z,29.1015,-89.9782,0.0,13.67,158.0,,'11111222,11111222,99999999' 
WAVCIS,ioos:station:WAVCIS:CSI09:1,2017-04-03T06:00:00Z,29.1015,-89.9782,0.0,12.18,158.0,,'11111222,11111222,99999999' 
WAVCIS,ioos:station:WAVCIS:CSI09:1,2017-04-03T07:00:00Z,29.1015,-89.9782,0.0,11.53,160.0,,'11111222,11111222,99999999' 
WAVCIS,ioos:station:WAVCIS:CSI09:1,2017-04-03T08:00:00Z,29.1015,-89.9782,0.0,12.09,163.0,,'11111222,11111222,99999999' 
WAVCIS,ioos:station:WAVCIS:CSI09:1,2017-04-03T09:00:00Z,29.1015,-89.9782,0.0,12.77,169.0,,'11111222,11111222,99999999' 
WAVCIS,ioos:station:WAVCIS:CSI09:1,2017-04-03T10:00:00Z,29.1015,-89.9782,0.0,13.81,179.0,,'11111222,11111222,99999999' 
WAVCIS,ioos:station:WAVCIS:CSI09:1,2017-04-03T11:00:00Z,29.1015,-89.9782,0.0,7.61,209.0,,'11111222,11111222,99999999' 
WAVCIS,ioos:station:WAVCIS:CSI09:1,2017-04-03T12:00:00Z,29.1015,-89.9782,0.0,10.54,225.0,,'11111222,11111222,99999999' 
WAVCIS,ioos:station:WAVCIS:CSI09:1,2017-04-03T13:00:00Z,29.1015,-89.9782,0.0,8.18,220.0,,'11111222,11111222,99999999' 
WAVCIS,ioos:station:WAVCIS:CSI09:1,2017-04-03T14:00:00Z,29.1015,-89.9782,0.0,6.743,215.0,,'11111222,11111222,99999999' 
WAVCIS,ioos:station:WAVCIS:CSI09:1,2017-04-03T15:00:00Z,29.1015,-89.9782,0.0,6.446,209.0,,'11111222,11111222,99999999' 
WAVCIS,ioos:station:WAVCIS:CSI09:1,2017-04-03T16:00:00Z,29.1015,-89.9782,0.0,7.87,242.0,,'11111222,11111222,99999999' 
WAVCIS,ioos:station:WAVCIS:CSI09:1,2017-04-03T17:00:00Z,29.1015,-89.9782,0.0,4.195,8.0,,'11111222,11111222,99999999' 
WAVCIS,ioos:station:WAVCIS:CSI09:1,2017-04-03T18:00:00Z,29.1015,-89.9782,0.0,0.58,5.0,,'11111222,11111222,99999999' 
WAVCIS,ioos:station:WAVCIS:CSI09:1,2017-04-03T19:00:00Z,29.1015,-89.9782,0.0,1.86,222.0,,'11111222,11111222,99999999' 
WAVCIS,ioos:station:WAVCIS:CSI09:1,2017-04-03T20:00:00Z,29.1015,-89.9782,0.0,4.383,236.0,,'11111222,11111222,99999999' 
WAVCIS,ioos:station:WAVCIS:CSI09:1,2017-04-03T21:00:00Z,29.1015,-89.9782,0.0,5.659,237.0,,'11111222,11111222,99999999' 
WAVCIS,ioos:station:WAVCIS:CSI09:1,2017-04-03T22:00:00Z,29.1015,-89.9782,0.0,6.213,235.0,,'11111222,11111222,99999999' 
WAVCIS,ioos:station:WAVCIS:CSI09:1,2017-04-03T23:00:00Z,29.1015,-89.9782,0.0,6.741,238.0,,'11111222,11111222,99999999' 
WAVCIS,ioos:station:WAVCIS:CSI09:1,2017-04-04T00:00:00Z,29.1015,-89.9782,0.0,6.596,232.0,,'11111222,11111222,99999999' 
WAVCIS,ioos:station:WAVCIS:CSI09:1,2017-04-04T01:00:00Z,29.1015,-89.9782,0.0,6.381,245.0,,'11111222,11111222,99999999' 
WAVCIS,ioos:station:WAVCIS:CSI09:1,2017-04-04T02:00:00Z,29.1015,-89.9782,0.0,6.189,246.0,,'11111222,11111222,99999999' 
WAVCIS,ioos:station:WAVCIS:CSI09:1,2017-04-04T03:00:00Z,29.1015,-89.9782,0.0,4.698,244.0,,'11111222,11111222,99999999' 
WAVCIS,ioos:station:WAVCIS:CSI09:1,2017-04-04T04:00:00Z,29.1015,-89.9782,0.0,4.052,244.0,,'11111222,11111222,99999999' 
WAVCIS,ioos:station:WAVCIS:CSI09:1,2017-04-04T05:00:00Z,29.1015,-89.9782,0.0,3.288,252.0,,'11111222,11111222,99999999' 
WAVCIS,ioos:station:WAVCIS:CSI09:1,2017-04-04T06:00:00Z,29.1015,-89.9782,0.0,2.22,217.0,,'11111222,11111222,99999999' 
WAVCIS,ioos:station:WAVCIS:CSI09:1,2017-04-04T07:00:00Z,29.1015,-89.9782,0.0,1.648,210.0,,'11111222,11111222,99999999' 
WAVCIS,ioos:station:WAVCIS:CSI09:1,2017-04-04T08:00:00Z,29.1015,-89.9782,0.0,2.029,191.0,,'11111222,11111222,99999999' 
WAVCIS,ioos:station:WAVCIS:CSI09:1,2017-04-04T09:00:00Z,29.1015,-89.9782,0.0,1.564,185.0,,'11111222,11111222,99999999' 
WAVCIS,ioos:station:WAVCIS:CSI09:1,2017-04-04T10:00:00Z,29.1015,-89.9782,0.0,1.096,231.0,,'11111222,11111222,99999999' 
WAVCIS,ioos:station:WAVCIS:CSI09:1,2017-04-04T11:00:00Z,29.1015,-89.9782,0.0,0.653,289.0,,'11111222,11111222,99999999' 
WAVCIS,ioos:station:WAVCIS:CSI09:1,2017-04-04T12:00:00Z,29.1015,-89.9782,0.0,1.79,106.0,,'11111222,11111222,99999999' 
WAVCIS,ioos:station:WAVCIS:CSI09:1,2017-04-04T13:00:00Z,29.1015,-89.9782,0.0,1.249,145.0,,'11111222,11111222,99999999' 
WAVCIS,ioos:station:WAVCIS:CSI09:1,2017-04-04T14:00:00Z,29.1015,-89.9782,0.0,2.019,48.0,,'11111222,11111222,99999999' 
WAVCIS,ioos:station:WAVCIS:CSI09:1,2017-04-04T15:00:00Z,29.1015,-89.9782,0.0,3.389,44.0,,'11111222,11111222,99999999' 
WAVCIS,ioos:station:WAVCIS:CSI09:1,2017-04-04T16:00:00Z,29.1015,-89.9782,0.0,3.491,52.0,,'11111222,11111222,99999999' 
WAVCIS,ioos:station:WAVCIS:CSI09:1,2017-04-04T17:00:00Z,29.1015,-89.9782,0.0,4.091,77.0,,'11111222,11111222,99999999' 
WAVCIS,ioos:station:WAVCIS:CSI09:1,2017-04-04T18:00:00Z,29.1015,-89.9782,0.0,4.857,93.0,,'11111222,11111222,99999999' 
WAVCIS,ioos:station:WAVCIS:CSI09:1,2017-04-04T19:00:00Z,29.1015,-89.9782,0.0,4.413,108.0,,'11111222,11111222,99999999' 
WAVCIS,ioos:station:WAVCIS:CSI09:1,2017-04-04T20:00:00Z,29.1015,-89.9782,0.0,4.637,95.0,,'11111222,11111222,99999999' 
WAVCIS,ioos:station:WAVCIS:CSI09:1,2017-04-04T21:00:00Z,29.1015,-89.9782,0.0,5.195,95.0,,'11111222,11111222,99999999' 
WAVCIS,ioos:station:WAVCIS:CSI09:1,2017-04-04T22:00:00Z,29.1015,-89.9782,0.0,5.591,94.0,,'11111222,11111222,99999999' 
WAVCIS,ioos:station:WAVCIS:CSI09:1,2017-04-04T23:00:00Z,29.1015,-89.9782,0.0,5.785,96.0,,'11111222,11111222,99999999' 
WAVCIS,ioos:station:WAVCIS:CSI09:1,2017-04-05T00:00:00Z,29.1015,-89.9782,0.0,6.594,102.0,,'11111222,11111222,99999999' 
WAVCIS,ioos:station:WAVCIS:CSI09:1,2017-04-05T01:00:00Z,29.1015,-89.9782,0.0,8.66,117.0,,'11111222,11111222,99999999' 
WAVCIS,ioos:station:WAVCIS:CSI09:1,2017-04-05T02:00:00Z,29.1015,-89.9782,0.0,7.27,136.0,,'11111222,11111222,99999999' 
WAVCIS,ioos:station:WAVCIS:CSI09:1,2017-04-05T03:00:00Z,29.1015,-89.9782,0.0,8.37,152.0,,'11111222,11111222,99999999' 
WAVCIS,ioos:station:WAVCIS:CSI09:1,2017-04-05T04:00:00Z,29.1015,-89.9782,0.0,7.91,163.0,,'11111222,11111222,99999999' 
WAVCIS,ioos:station:WAVCIS:CSI09:1,2017-04-05T05:00:00Z,29.1015,-89.9782,0.0,8.08,173.0,,'11111222,11111222,99999999' 
WAVCIS,ioos:station:WAVCIS:CSI09:1,2017-04-05T06:00:00Z,29.1015,-89.9782,0.0,7.85,177.0,,'11111222,11111222,99999999' 
WAVCIS,ioos:station:WAVCIS:CSI09:1,2017-04-05T07:00:00Z,29.1015,-89.9782,0.0,7.98,179.0,,'11111222,11111222,99999999' 
WAVCIS,ioos:station:WAVCIS:CSI09:1,2017-04-05T08:00:00Z,29.1015,-89.9782,0.0,5.95,183.0,,'11111222,11111222,99999999' 
WAVCIS,ioos:station:WAVCIS:CSI09:1,2017-04-05T09:00:00Z,29.1015,-89.9782,0.0,8.03,178.0,,'11111222,11111222,99999999' 
WAVCIS,ioos:station:WAVCIS:CSI09:1,2017-04-05T10:00:00Z,29.1015,-89.9782,0.0,6.385,182.0,,'11111222,11111222,99999999' 
WAVCIS,ioos:station:WAVCIS:CSI09:1,2017-04-05T11:00:00Z,29.1015,-89.9782,0.0,4.345,197.0,,'11111222,11111222,99999999' 
WAVCIS,ioos:station:WAVCIS:CSI09:1,2017-04-05T12:00:00Z,29.1015,-89.9782,0.0,5.273,208.0,,'11111222,11111222,99999999' 
WAVCIS,ioos:station:WAVCIS:CSI09:1,2017-04-05T13:00:00Z,29.1015,-89.9782,0.0,6.58,228.0,,'11111222,11111222,99999999' 
WAVCIS,ioos:station:WAVCIS:CSI09:1,2017-04-05T14:00:00Z,29.1015,-89.9782,0.0,4.818,219.0,,'11111222,11111222,99999999' 
WAVCIS,ioos:station:WAVCIS:CSI09:1,2017-04-05T15:00:00Z,29.1015,-89.9782,0.0,6.771,232.0,,'11111222,11111222,99999999' 
WAVCIS,ioos:station:WAVCIS:CSI09:1,2017-04-05T16:00:00Z,29.1015,-89.9782,0.0,6.617,226.0,,'11111222,11111222,99999999' 
WAVCIS,ioos:station:WAVCIS:CSI09:1,2017-04-05T17:00:00Z,29.1015,-89.9782,0.0,8.67,251.0,,'11111222,11111222,99999999' 
WAVCIS,ioos:station:WAVCIS:CSI09:1,2017-04-05T18:00:00Z,29.1015,-89.9782,0.0,10.01,256.0,,'11111222,11111222,99999999' 
WAVCIS,ioos:station:WAVCIS:CSI09:1,2017-04-05T19:00:00Z,29.1015,-89.9782,0.0,10.91,258.0,,'11111222,11111222,99999999' 
WAVCIS,ioos:station:WAVCIS:CSI09:1,2017-04-05T20:00:00Z,29.1015,-89.9782,0.0,10.7,259.0,,'11111222,11111222,99999999' 
WAVCIS,ioos:station:WAVCIS:CSI09:1,2017-04-05T21:00:00Z,29.1015,-89.9782,0.0,9.13,261.0,,'11111222,11111222,99999999' 
WAVCIS,ioos:station:WAVCIS:CSI09:1,2017-04-05T22:00:00Z,29.1015,-89.9782,0.0,10.58,274.0,,'11111222,11111222,99999999' 
WAVCIS,ioos:station:WAVCIS:CSI09:1,2017-04-05T23:00:00Z,29.1015,-89.9782,0.0,12.74,278.0,,'11111222,11111222,99999999' 
WAVCIS,ioos:station:WAVCIS:CSI09:1,2017-04-06T00:00:00Z,29.1015,-89.9782,0.0,11.64,285.0,,'11111222,11111222,99999999' 
WAVCIS,ioos:station:WAVCIS:CSI09:1,2017-04-06T01:00:00Z,29.1015,-89.9782,0.0,11.97,303.0,,'11111222,11111222,99999999' 
WAVCIS,ioos:station:WAVCIS:CSI09:1,2017-04-06T02:00:00Z,29.1015,-89.9782,0.0,13.62,317.0,,'11111222,11111222,99999999' 
WAVCIS,ioos:station:WAVCIS:CSI09:1,2017-04-06T03:00:00Z,29.1015,-89.9782,0.0,15.69,321.0,,'11111222,11111222,99999999' 
WAVCIS,ioos:station:WAVCIS:CSI09:1,2017-04-06T04:00:00Z,29.1015,-89.9782,0.0,16.16,322.0,,'11111222,11111222,99999999' 
WAVCIS,ioos:station:WAVCIS:CSI09:1,2017-04-06T05:00:00Z,29.1015,-89.9782,0.0,16.0,335.0,,'11111222,11111222,99999999' 
WAVCIS,ioos:station:WAVCIS:CSI09:1,2017-04-06T06:00:00Z,29.1015,-89.9782,0.0,15.68,340.0,,'11111222,11111222,99999999' 
WAVCIS,ioos:station:WAVCIS:CSI09:1,2017-04-06T07:00:00Z,29.1015,-89.9782,0.0,14.7,339.0,,'11111222,11111222,99999999' 
WAVCIS,ioos:station:WAVCIS:CSI09:1,2017-04-06T08:00:00Z,29.1015,-89.9782,0.0,12.6,342.0,,'11111222,11111222,99999999' 
WAVCIS,ioos:station:WAVCIS:CSI09:1,2017-04-06T09:00:00Z,29.1015,-89.9782,0.0,13.82,334.0,,'11111222,11111222,99999999' 
WAVCIS,ioos:station:WAVCIS:CSI09:1,2017-04-06T10:00:00Z,29.1015,-89.9782,0.0,12.25,331.0,,'11111222,11111222,99999999' 
WAVCIS,ioos:station:WAVCIS:CSI09:1,2017-04-06T11:00:00Z,29.1015,-89.9782,0.0,8.62,319.0,,'11111222,11111222,99999999' 
WAVCIS,ioos:station:WAVCIS:CSI09:1,2017-04-06T12:00:00Z,29.1015,-89.9782,0.0,8.58,310.0,,'11111222,11111222,99999999' 
WAVCIS,ioos:station:WAVCIS:CSI09:1,2017-04-06T13:00:00Z,29.1015,-89.9782,0.0,11.2,313.0,,'11111222,11111222,99999999' 
WAVCIS,ioos:station:WAVCIS:CSI09:1,2017-04-06T14:00:00Z,29.1015,-89.9782,0.0,11.46,322.0,,'11111222,11111222,99999999' 
WAVCIS,ioos:station:WAVCIS:CSI09:1,2017-04-06T15:00:00Z,29.1015,-89.9782,0.0,11.58,330.0,,'11111222,11111222,99999999' 
WAVCIS,ioos:station:WAVCIS:CSI09:1,2017-04-06T16:00:00Z,29.1015,-89.9782,0.0,11.07,326.0,,'11111222,11111222,99999999' 
WAVCIS,ioos:station:WAVCIS:CSI09:1,2017-04-06T17:00:00Z,29.1015,-89.9782,0.0,9.35,329.0,,'11111222,11111222,99999999' 
WAVCIS,ioos:station:WAVCIS:CSI09:1,2017-04-06T18:00:00Z,29.1015,-89.9782,0.0,8.87,335.0,,'11111222,11111222,99999999' 
WAVCIS,ioos:station:WAVCIS:CSI09:1,2017-04-06T19:00:00Z,29.1015,-89.9782,0.0,7.8,331.0,,'11111222,11111222,99999999' 
WAVCIS,ioos:station:WAVCIS:CSI09:1,2017-04-06T20:00:00Z,29.1015,-89.9782,0.0,6.532,317.0,,'11111222,11111222,99999999' 
WAVCIS,ioos:station:WAVCIS:CSI09:1,2017-04-06T21:00:00Z,29.1015,-89.9782,0.0,7.96,338.0,,'11111222,11111222,99999999' 
WAVCIS,ioos:station:WAVCIS:CSI09:1,2017-04-06T22:00:00Z,29.1015,-89.9782,0.0,8.0,336.0,,'11111222,11111222,99999999' 
WAVCIS,ioos:station:WAVCIS:CSI09:1,2017-04-06T23:00:00Z,29.1015,-89.9782,0.0,8.98,332.0,,'11111222,11111222,99999999' 
WAVCIS,ioos:station:WAVCIS:CSI09:1,2017-04-07T00:00:00Z,29.1015,-89.9782,0.0,9.18,338.0,,'11111222,11111222,99999999' 
WAVCIS,ioos:station:WAVCIS:CSI09:1,2017-04-07T01:00:00Z,29.1015,-89.9782,0.0,9.2,320.0,,'11111222,11111222,99999999' 
WAVCIS,ioos:station:WAVCIS:CSI09:1,2017-04-07T02:00:00Z,29.1015,-89.9782,0.0,10.51,333.0,,'11111222,11111222,99999999' 
WAVCIS,ioos:station:WAVCIS:CSI09:1,2017-04-07T03:00:00Z,29.1015,-89.9782,0.0,9.42,343.0,,'11111222,11111222,99999999' 
WAVCIS,ioos:station:WAVCIS:CSI09:1,2017-04-07T04:00:00Z,29.1015,-89.9782,0.0,8.4,345.0,,'11111222,11111222,99999999' 
WAVCIS,ioos:station:WAVCIS:CSI09:1,2017-04-07T05:00:00Z,29.1015,-89.9782,0.0,7.65,3.0,,'11111222,11111222,99999999' 
WAVCIS,ioos:station:WAVCIS:CSI09:1,2017-04-07T06:00:00Z,29.1015,-89.9782,0.0,6.302,21.0,,'11111222,11111222,99999999' 
WAVCIS,ioos:station:WAVCIS:CSI09:1,2017-04-07T07:00:00Z,29.1015,-89.9782,0.0,5.647,18.0,,'11111222,11111222,99999999' 
WAVCIS,ioos:station:WAVCIS:CSI09:1,2017-04-07T08:00:00Z,29.1015,-89.9782,0.0,3.282,19.0,,'11111222,11111222,99999999' 
WAVCIS,ioos:station:WAVCIS:CSI09:1,2017-04-07T09:00:00Z,29.1015,-89.9782,0.0,1.224,5.0,,'11111222,11111222,99999999' 
WAVCIS,ioos:station:WAVCIS:CSI09:1,2017-04-07T10:00:00Z,29.1015,-89.9782,0.0,1.952,289.0,,'11111222,11111222,99999999' 
WAVCIS,ioos:station:WAVCIS:CSI09:1,2017-04-07T11:00:00Z,29.1015,-89.9782,0.0,2.287,284.0,,'11111222,11111222,99999999' 
WAVCIS,ioos:station:WAVCIS:CSI09:1,2017-04-07T12:00:00Z,29.1015,-89.9782,0.0,3.307,283.0,,'11111222,11111222,99999999' 
WAVCIS,ioos:station:WAVCIS:CSI09:1,2017-04-07T13:00:00Z,29.1015,-89.9782,0.0,4.373,296.0,,'11111222,11111222,99999999' 
WAVCIS,ioos:station:WAVCIS:CSI09:1,2017-04-07T14:00:00Z,29.1015,-89.9782,0.0,4.509,324.0,,'11111222,11111222,99999999' 
WAVCIS,ioos:station:WAVCIS:CSI09:1,2017-04-07T15:00:00Z,29.1015,-89.9782,0.0,4.562,326.0,,'11111222,11111222,99999999' 
WAVCIS,ioos:station:WAVCIS:CSI09:1,2017-04-07T16:00:00Z,29.1015,-89.9782,0.0,4.084,331.0,,'11111222,11111222,99999999' 
WAVCIS,ioos:station:WAVCIS:CSI09:1,2017-04-07T17:00:00Z,29.1015,-89.9782,0.0,2.853,333.0,,'11111222,11111222,99999999' 
WAVCIS,ioos:station:WAVCIS:CSI09:1,2017-04-07T18:00:00Z,29.1015,-89.9782,0.0,3.097,343.0,,'11111222,11111222,99999999' 
WAVCIS,ioos:station:WAVCIS:CSI09:1,2017-04-07T19:00:00Z,29.1015,-89.9782,0.0,6.684,338.0,,'11111222,11111222,99999999' 
WAVCIS,ioos:station:WAVCIS:CSI09:1,2017-04-07T20:00:00Z,29.1015,-89.9782,0.0,6.7,355.0,,'11111222,11111222,99999999' 
WAVCIS,ioos:station:WAVCIS:CSI09:1,2017-04-07T21:00:00Z,29.1015,-89.9782,0.0,6.976,359.0,,'11111222,11111222,99999999' 
WAVCIS,ioos:station:WAVCIS:CSI09:1,2017-04-07T22:00:00Z,29.1015,-89.9782,0.0,6.272,3.0,,'11111222,11111222,99999999' 
WAVCIS,ioos:station:WAVCIS:CSI09:1,2017-04-07T23:00:00Z,29.1015,-89.9782,0.0,5.25,4.0,,'11111222,11111222,99999999' 
WAVCIS,ioos:station:WAVCIS:CSI09:1,2017-04-08T00:00:00Z,29.1015,-89.9782,0.0,4.046,358.0,,'11111222,11111222,99999999' 
WAVCIS,ioos:station:WAVCIS:CSI09:1,2017-04-08T01:00:00Z,29.1015,-89.9782,0.0,4.125,359.0,,'11111222,11111222,99999999' 
WAVCIS,ioos:station:WAVCIS:CSI09:1,2017-04-08T02:00:00Z,29.1015,-89.9782,0.0,3.003,0.0,,'11111222,11111222,99999999' 
WAVCIS,ioos:station:WAVCIS:CSI09:1,2017-04-08T03:00:00Z,29.1015,-89.9782,0.0,2.465,327.0,,'11111222,11111222,99999999' 
WAVCIS,ioos:station:WAVCIS:CSI09:1,2017-04-08T04:00:00Z,29.1015,-89.9782,0.0,4.458,317.0,,'11111222,11111222,99999999' 
WAVCIS,ioos:station:WAVCIS:CSI09:1,2017-04-08T05:00:00Z,29.1015,-89.9782,0.0,6.857,346.0,,'11111222,11111222,99999999' 
WAVCIS,ioos:station:WAVCIS:CSI09:1,2017-04-08T06:00:00Z,29.1015,-89.9782,0.0,6.365,10.0,,'11111222,11111222,99999999' 
WAVCIS,ioos:station:WAVCIS:CSI09:1,2017-04-08T07:00:00Z,29.1015,-89.9782,0.0,5.867,34.0,,'11111222,11111222,99999999' 
WAVCIS,ioos:station:WAVCIS:CSI09:1,2017-04-08T08:00:00Z,29.1015,-89.9782,0.0,5.859,34.0,,'11111222,11111222,99999999' 
WAVCIS,ioos:station:WAVCIS:CSI09:1,2017-04-08T09:00:00Z,29.1015,-89.9782,0.0,6.323,42.0,,'11111222,11111222,99999999' 
WAVCIS,ioos:station:WAVCIS:CSI09:1,2017-04-08T10:00:00Z,29.1015,-89.9782,0.0,5.641,42.0,,'11111222,11111222,99999999' 
WAVCIS,ioos:station:WAVCIS:CSI09:1,2017-04-08T11:00:00Z,29.1015,-89.9782,0.0,5.776,38.0,,'11111222,11111222,99999999' 
WAVCIS,ioos:station:WAVCIS:CSI09:1,2017-04-08T12:00:00Z,29.1015,-89.9782,0.0,5.078,54.0,,'11111222,11111222,99999999' 
WAVCIS,ioos:station:WAVCIS:CSI09:1,2017-04-08T13:00:00Z,29.1015,-89.9782,0.0,5.292,61.0,,'11111222,11111222,99999999' 
WAVCIS,ioos:station:WAVCIS:CSI09:1,2017-04-08T14:00:00Z,29.1015,-89.9782,0.0,5.312,66.0,,'11111222,11111222,99999999' 
WAVCIS,ioos:station:WAVCIS:CSI09:1,2017-04-08T15:00:00Z,29.1015,-89.9782,0.0,5.16,67.0,,'11111222,11111222,99999999' 
WAVCIS,ioos:station:WAVCIS:CSI09:1,2017-04-08T16:00:00Z,29.1015,-89.9782,0.0,4.92,79.0,,'11111222,11111222,99999999' 
WAVCIS,ioos:station:WAVCIS:CSI09:1,2017-04-08T17:00:00Z,29.1015,-89.9782,0.0,3.357,75.0,,'11111222,11111222,99999999' 
WAVCIS,ioos:station:WAVCIS:CSI09:1,2017-04-08T18:00:00Z,29.1015,-89.9782,0.0,2.208,90.0,,'11111222,11111222,99999999' 
WAVCIS,ioos:station:WAVCIS:CSI09:1,2017-04-08T19:00:00Z,29.1015,-89.9782,0.0,2.68,129.0,,'11111222,11111222,99999999' 
WAVCIS,ioos:station:WAVCIS:CSI09:1,2017-04-08T20:00:00Z,29.1015,-89.9782,0.0,1.667,96.0,,'11111222,11111222,99999999' 
WAVCIS,ioos:station:WAVCIS:CSI09:1,2017-04-08T21:00:00Z,29.1015,-89.9782,0.0,1.142,108.0,,'11111222,11111222,99999999' 
WAVCIS,ioos:station:WAVCIS:CSI09:1,2017-04-08T22:00:00Z,29.1015,-89.9782,0.0,2.011,116.0,,'11111222,11111222,99999999' 
WAVCIS,ioos:station:WAVCIS:CSI09:1,2017-04-08T23:00:00Z,29.1015,-89.9782,0.0,2.519,132.0,,'11111222,11111222,99999999' 
WAVCIS,ioos:station:WAVCIS:CSI09:1,2017-04-09T00:00:00Z,29.1015,-89.9782,0.0,2.63,120.0,,'11111222,11111222,99999999' 
WAVCIS,ioos:station:WAVCIS:CSI09:1,2017-04-09T01:00:00Z,29.1015,-89.9782,0.0,2.609,123.0,,'11111222,11111222,99999999' 
WAVCIS,ioos:station:WAVCIS:CSI09:1,2017-04-09T02:00:00Z,29.1015,-89.9782,0.0,3.016,138.0,,'11111222,11111222,99999999' 
WAVCIS,ioos:station:WAVCIS:CSI09:1,2017-04-09T03:00:00Z,29.1015,-89.9782,0.0,2.771,136.0,,'11111222,11111222,99999999' 
WAVCIS,ioos:station:WAVCIS:CSI09:1,2017-04-09T04:00:00Z,29.1015,-89.9782,0.0,3.953,137.0,,'11111222,11111222,99999999' 
WAVCIS,ioos:station:WAVCIS:CSI09:1,2017-04-09T05:00:00Z,29.1015,-89.9782,0.0,4.19,128.0,,'11111222,11111222,99999999' 
WAVCIS,ioos:station:WAVCIS:CSI09:1,2017-04-09T06:00:00Z,29.1015,-89.9782,0.0,2.904,112.0,,'11111222,11111222,99999999' 
WAVCIS,ioos:station:WAVCIS:CSI09:1,2017-04-09T07:00:00Z,29.1015,-89.9782,0.0,3.238,128.0,,'11111222,11111222,99999999' 